Tracking 17925 objects as of 22-January-2017
HD Live streaming from Space Station
objects crossing your sky now

H-1 R/B(1)

Track H-1 R/B(1) now!
10-day predictions


NORAD ID: 20230
Int'l Code: 1989-070B
Perigee: 191.6 km
Apogee: 5,570.2 km
Inclination: 28.2 °
Period: 147.6 minutes
Semi major axis: 9251 km
RCS: 2.9914 m2 (large)
Launch date: September 5, 1989
Source: Japan (JPN)
Launch site: TANEGASHIMA SPACE CENTER (TNSTA)

Note: This is a ROCKET BODY
Your satellite tracking list
Your tracking list is empty





NASA's NSSDC Master Catalog

Two Line Element Set (TLE):
1 20230U 89070B   17022.19591967  .00174484 -36555-6  79139-3 0  9991
2 20230  28.2111  24.0700 2906738  77.9777 312.8025  9.75569606496098
Source of the keplerian elements: AFSPC